W5ZYX Weather Reports


Display with metric or nautical units.
time (UTC)temp
F
wind
direction
speed
MPH
gust
MPH
rain 1hr
in
rain 24hr
in
rain mn
in
humidity
%
barometer
mb
20260510084549 70 0 0.0 3.0 0.00 0.01 0.00 93 1011.0
20260510084039 70 156 0.0 3.0 0.00 0.01 0.00 93 1011.1
20260510083535 70 156 1.0 3.0 0.00 0.01 0.00 93 1011.3
20260510083100 70 156 1.0 3.0 0.00 0.01 0.00 93 1011.2
20260510082535 70 156 1.0 3.0 0.00 0.01 0.00 93 1011.2
20260510082039 70 156 0.0 3.0 0.00 0.01 0.00 92 1011.3
20260510081551 70 0 0.0 3.0 0.00 0.01 0.00 92 1011.2
20260510081040 70 0 0.0 2.0 0.00 0.01 0.00 92 1011.4
20260510080539 70 0 0.0 2.0 0.00 0.01 0.00 92 1011.4
20260510080052 70 0 0.0 2.0 0.00 0.01 0.00 92 1011.4
20260510075538 70 0 0.0 2.0 0.00 0.01 0.00 92 1011.5
20260510075035 70 0 0.0 2.0 0.00 0.01 0.00 92 1011.5
20260510074545 70 0 0.0 3.0 0.00 0.01 0.00 92 1011.4
20260510074036 70 0 0.0 3.0 0.00 0.01 0.00 91 1011.5
20260510073536 71 156 1.0 3.0 0.00 0.01 0.00 91 1011.5
20260510073048 71 156 1.0 5.0 0.00 0.01 0.00 91 1011.5
20260510072539 71 156 1.0 6.0 0.00 0.01 0.00 91 1011.5
20260510072037 71 156 2.0 7.0 0.00 0.01 0.00 91 1011.5
20260510071556 71 155 2.0 8.0 0.00 0.01 0.00 91 1011.5
20260510071037 71 167 4.0 8.0 0.00 0.01 0.00 91 1011.6
20260510070539 71 153 4.0 8.0 0.00 0.01 0.00 90 1011.6
20260510070052 71 101 3.0 7.0 0.00 0.01 0.00 90 1011.6
20260510065540 71 144 2.0 7.0 0.00 0.01 0.00 89 1011.7
20260510065040 71 148 2.0 5.0 0.00 0.01 0.00 89 1011.7
20260510064547 71 157 1.0 8.0 0.00 0.01 0.00 88 1011.6
20260510064035 71 157 3.0 8.0 0.00 0.01 0.00 88 1011.7
20260510063538 71 144 2.0 5.0 0.00 0.01 0.00 88 1011.6
20260510063048 71 174 2.0 5.0 0.00 0.01 0.00 88 1011.6
20260510062537 71 142 3.0 6.0 0.00 0.01 0.00 87 1011.7
20260510062036 72 154 2.0 9.0 0.00 0.01 0.00 87 1011.6
20260510061553 72 157 4.0 9.0 0.00 0.01 0.00 86 1011.6
20260510061036 72 171 4.0 10.0 0.00 0.01 0.00 86 1011.7
20260510060536 72 171 4.0 10.0 0.00 0.01 0.00 85 1011.7
20260510060051 72 132 4.0 11.0 0.00 0.01 0.00 85 1011.7
20260510055535 72 159 4.0 12.0 0.00 0.01 0.00 85 1011.8
20260510055036 72 150 5.0 12.0 0.00 0.01 0.00 85 1011.8
20260510054550 73 150 4.0 8.0 0.00 0.01 0.00 85 1011.8
20260510054036 73 170 3.0 8.0 0.00 0.01 0.00 85 1011.9
20260510053538 73 117 3.0 10.0 0.00 0.01 0.00 84 1011.8
20260510053050 73 161 4.0 10.0 0.00 0.01 0.00 84 1011.9
20260510052538 73 150 4.0 9.0 0.00 0.01 0.00 84 1011.9
20260510052038 74 167 3.0 9.0 0.00 0.01 0.00 84 1011.9
20260510051554 74 150 3.0 9.0 0.00 0.01 0.00 84 1011.8
20260510051035 74 165 3.0 10.0 0.00 0.01 0.00 84 1011.8
20260510050535 74 148 4.0 9.0 0.00 0.01 0.00 84 1011.7
20260510050056 74 155 3.0 10.0 0.00 0.01 0.00 84 1011.8
20260510045536 74 153 4.0 11.0 0.00 0.01 0.01 84 1011.9
20260510045039 75 123 2.0 13.0 0.00 0.01 0.01 84 1011.7
20260510044555 75 169 5.0 13.0 0.00 0.01 0.01 84 1011.7
20260510044038 75 178 6.0 13.0 0.00 0.01 0.01 84 1011.8
20260510043539 76 149 7.0 13.0 0.00 0.01 0.01 84 1011.9
20260510043100 76 117 5.0 13.0 0.00 0.01 0.01 86 1012.0
20260510042536 76 145 6.0 13.0 0.00 0.01 0.01 87 1011.9
20260510042039 76 146 3.0 11.0 0.00 0.01 0.01 88 1011.9
20260510041553 77 142 5.0 11.0 0.00 0.01 0.01 88 1011.8
20260510041036 77 157 5.0 11.0 0.00 0.01 0.01 88 1011.9
20260510040536 77 174 4.0 15.0 0.00 0.01 0.01 87 1011.9
20260510040100 77 136 6.0 15.0 0.00 0.01 0.01 87 1011.9
20260510035539 78 146 4.0 15.0 0.00 0.01 0.01 86 1011.9
20260510035035 78 144 7.0 15.0 0.00 0.01 0.01 86 1011.9
20260510034554 78 128 5.0 12.0 0.00 0.01 0.01 86 1011.8
20260510034036 78 154 5.0 12.0 0.00 0.01 0.01 86 1011.7
20260510033538 77 142 3.0 8.0 0.00 0.01 0.01 86 1011.6
20260510033113 77 141 2.0 7.0 0.00 0.01 0.01 86 1011.5
20260510032536 77 175 3.0 7.0 0.00 0.01 0.01 87 1011.4
20260510032036 77 138 3.0 8.0 0.00 0.01 0.01 87 1011.3
20260510031558 76 115 3.0 8.0 0.00 0.01 0.01 87 1011.3
20260510031036 76 136 2.0 6.0 0.00 0.01 0.01 88 1011.2
20260510030539 75 132 2.0 6.0 0.00 0.01 0.01 88 1011.2
20260510030053 75 106 1.0 6.0 0.00 0.01 0.01 89 1011.1
20260510025538 74 132 2.0 6.0 0.00 0.01 0.01 89 1010.9
20260510025039 74 131 1.0 3.0 0.00 0.01 0.01 89 1010.8
20260510024558 75 0 0.0 2.0 0.00 0.01 0.01 88 1010.8
20260510024038 75 0 0.0 2.0 0.00 0.01 0.01 88 1010.7
20260510023539 75 0 0.0 1.0 0.00 0.01 0.01 88 1010.6
20260510023048 75 0 0.0 1.0 0.00 0.01 0.01 88 1010.5
20260510022535 75 131 0.0 1.0 0.00 0.01 0.01 88 1010.4
20260510022036 76 0 0.0 1.0 0.00 0.01 0.01 88 1010.3
20260510021551 76 0 0.0 0.0 0.00 0.01 0.01 87 1010.2
20260510021040 76 0 0.0 0.0 0.00 0.01 0.01 87 1010.2
20260510020540 76 0 0.0 0.0 0.00 0.01 0.01 86 1010.1
20260510020050 77 0 0.0 0.0 0.00 0.01 0.01 86 1010.0
20260510015536 77 0 0.0 0.0 0.00 0.01 0.01 86 1010.0
20260510015036 77 0 0.0 0.0 0.00 0.01 0.01 84 1009.9
20260510014549 78 0 0.0 0.0 0.00 0.01 0.01 84 1009.9
20260510014036 78 0 0.0 0.0 0.00 0.01 0.01 83 1009.8
20260510013535 79 0 0.0 0.0 0.00 0.01 0.01 83 1009.7
20260510013052 79 0 0.0 1.0 0.00 0.01 0.01 83 1009.6
20260510012538 79 0 0.0 1.0 0.00 0.01 0.01 82 1009.5
20260510012038 80 0 0.0 1.0 0.00 0.01 0.01 82 1009.5
20260510011553 81 0 0.0 0.0 0.00 0.01 0.01 81 1009.4
20260510011036 82 0 0.0 0.0 0.00 0.01 0.01 79 1009.3
20260510010536 82 0 0.0 0.0 0.00 0.01 0.01 78 1009.3
20260510010046 82 0 0.0 0.0 0.00 0.01 0.01 77 1009.2
20260510005536 83 0 0.0 0.0 0.00 0.01 0.01 77 1009.2
20260510005037 83 0 0.0 0.0 0.00 0.01 0.01 76 1009.1
20260510004549 84 0 0.0 0.0 0.00 0.01 0.01 75 1009.2
20260510004036 84 0 0.0 1.0 0.00 0.01 0.01 74 1009.0
20260510003539 84 0 0.0 1.0 0.00 0.01 0.01 74 1009.0
20260510003104 84 0 0.0 2.0 0.00 0.01 0.01 74 1008.9
20260510002539 84 0 0.0 2.0 0.00 0.01 0.01 73 1008.9
20260510002035 85 0 0.0 3.0 0.00 0.01 0.01 72 1008.9
20260510001549 85 131 0.0 3.0 0.00 0.01 0.01 72 1008.8
20260510001040 85 131 1.0 3.0 0.00 0.01 0.01 72 1008.8
20260510000540 86 0 0.0 3.0 0.00 0.01 0.01 71 1008.7
20260510000050 86 0 0.0 3.0 0.00 0.01 0.01 70 1008.8
20260509235538 86 0 0.0 3.0 0.00 0.01 0.01 69 1008.7
20260509235036 86 131 0.0 3.0 0.00 0.01 0.01 69 1008.7
20260509234601 86 131 1.0 3.0 0.00 0.01 0.01 67 1008.7
20260509234039 86 131 0.0 4.0 0.00 0.01 0.01 68 1008.7
20260509233536 87 131 1.0 4.0 0.00 0.01 0.01 67 1008.7
20260509233050 87 202 1.0 3.0 0.00 0.01 0.01 67 1008.7
20260509232539 87 177 1.0 4.0 0.00 0.01 0.01 66 1008.6
20260509232039 87 0 1.0 4.0 0.00 0.01 0.01 67 1008.6
20260509231553 87 175 1.0 5.0 0.00 0.01 0.01 66 1008.6
20260509231038 88 175 3.0 5.0 0.00 0.01 0.01 66 1008.6
20260509230539 89 135 1.0 3.0 0.00 0.01 0.01 64 1008.6
20260509230059 89 114 0.0 2.0 0.00 0.01 0.01 64 1008.5
20260509225539 88 0 0.0 2.0 0.00 0.01 0.01 66 1008.4
20260509225035 88 0 0.0 3.0 0.00 0.01 0.01 65 1008.4
20260509224554 87 0 1.0 3.0 0.00 0.01 0.01 65 1008.4
20260509224039 88 0 1.0 3.0 0.00 0.01 0.01 65 1008.4
20260509223536 88 254 0.0 3.0 0.00 0.01 0.01 68 1008.3
20260509223049 87 0 0.0 3.0 0.00 0.01 0.01 67 1008.4
20260509222539 87 254 1.0 3.0 0.00 0.01 0.01 67 1008.5
20260509222039 87 0 0.0 3.0 0.00 0.01 0.01 67 1008.4
20260509221551 86 0 0.0 4.0 0.00 0.01 0.01 69 1008.5
20260509221039 86 254 0.0 4.0 0.00 0.01 0.01 69 1008.5
20260509220540 86 314 1.0 4.0 0.00 0.01 0.01 69 1008.4
20260509220045 86 314 2.0 4.0 0.00 0.01 0.01 68 1008.5
20260509215539 86 349 2.0 5.0 0.00 0.01 0.01 69 1008.6
20260509215039 86 282 2.0 5.0 0.00 0.01 0.01 69 1008.5
20260509214553 86 316 3.0 8.0 0.00 0.01 0.01 68 1008.5
20260509214039 86 270 2.0 8.0 0.00 0.01 0.01 67 1008.6
20260509213536 87 287 2.0 5.0 0.00 0.01 0.01 68 1008.7
20260509213058 87 294 1.0 6.0 0.00 0.01 0.01 69 1008.6
20260509212539 86 294 0.0 6.0 0.00 0.01 0.01 68 1008.6
20260509212036 86 294 1.0 10.0 0.00 0.01 0.01 69 1008.6
20260509211602 86 331 2.0 10.0 0.00 0.01 0.01 68 1008.7
20260509211040 86 331 3.0 8.0 0.00 0.01 0.01 69 1008.7
20260509210540 86 302 1.0 5.0 0.00 0.01 0.01 69 1008.8
20260509210052 87 302 1.0 8.0 0.00 0.01 0.01 68 1008.9
20260509205537 87 0 0.0 8.0 0.00 0.01 0.01 68 1008.9
20260509205039 87 249 4.0 8.0 0.00 0.01 0.01 68 1009.0
20260509204549 87 287 2.0 7.0 0.00 0.01 0.01 67 1009.1
20260509204036 87 283 1.0 4.0 0.00 0.01 0.01 69 1009.2
20260509203538 87 114 0.0 8.0 0.00 0.01 0.01 69 1009.4
20260509203052 86 0 1.0 8.0 0.00 0.01 0.01 72 1009.4
20260509202539 86 280 1.0 7.0 0.00 0.01 0.01 69 1009.5
20260509202038 86 0 0.0 7.0 0.00 0.01 0.01 72 1009.5
20260509201551 86 172 1.0 7.0 0.00 0.01 0.01 71 1009.6
20260509201040 86 161 2.0 5.0 0.00 0.01 0.01 71 1009.7
20260509200538 86 265 2.0 5.0 0.00 0.01 0.01 72 1009.6
20260509200055 86 239 1.0 5.0 0.00 0.01 0.01 72 1009.6
20260509195539 86 0 1.0 4.0 0.00 0.01 0.01 72 1009.7
20260509195036 86 192 0.0 4.0 0.00 0.01 0.01 75 1009.7
20260509194546 85 343 0.0 3.0 0.00 0.01 0.01 74 1009.6
20260509194036 85 0 0.0 3.0 0.00 0.01 0.01 74 1009.7
20260509193536 85 232 0.0 4.0 0.00 0.01 0.01 75 1009.9
20260509193052 84 232 1.0 4.0 0.00 0.01 0.01 75 1009.9
20260509192539 84 198 1.0 9.0 0.00 0.01 0.01 77 1010.1
20260509192039 84 238 2.0 9.0 0.00 0.01 0.01 74 1010.1
20260509191546 84 323 1.0 7.0 0.00 0.01 0.01 77 1010.1
20260509191035 84 229 1.0 7.0 0.00 0.01 0.01 77 1010.2
20260509190535 83 262 2.0 7.0 0.00 0.01 0.01 76 1010.3
20260509190048 83 244 2.0 7.0 0.00 0.01 0.01 77 1010.4
20260509185536 83 294 3.0 7.0 0.00 0.01 0.01 77 1010.4
20260509185038 83 257 3.0 8.0 0.00 0.01 0.01 78 1010.5
20260509184549 82 286 1.0 8.0 0.00 0.01 0.01 79 1010.6
20260509184035 82 251 2.0 8.0 0.00 0.01 0.01 80 1010.6
20260509183542 82 333 0.0 5.0 0.00 0.01 0.01 80 1010.7
20260509183126 82 257 2.0 8.0 0.00 0.01 0.01 79 1010.8
20260509182536 82 159 1.0 8.0 0.00 0.01 0.01 80 1010.8
20260509182037 82 285 2.0 8.0 0.00 0.01 0.01 81 1010.8
20260509181608 82 247 4.0 8.0 0.00 0.01 0.01 80 1010.9
20260509181037 82 266 2.0 5.0 0.00 0.01 0.01 82 1011.0
20260509180537 82 269 2.0 5.0 0.00 0.01 0.01 82 1011.0
20260509180050 81 194 1.0 5.0 0.00 0.01 0.01 83 1011.0
20260509175539 81 263 1.0 5.0 0.00 0.01 0.01 84 1011.0
20260509175036 81 306 1.0 5.0 0.00 0.01 0.01 84 1011.1
20260509174549 80 213 2.0 5.0 0.00 0.01 0.01 86 1011.3
20260509174038 80 164 1.0 5.0 0.00 0.01 0.01 86 1011.3
20260509173538 80 254 1.0 7.0 0.00 0.01 0.01 86 1011.3
20260509173049 80 0 0.0 7.0 0.00 0.01 0.01 86 1011.3
20260509172536 79 250 1.0 6.0 0.00 0.01 0.01 86 1011.4
20260509172039 79 167 0.0 6.0 0.00 0.01 0.01 89 1011.5
20260509171546 79 0 1.0 6.0 0.00 0.01 0.01 89 1011.5
20260509171036 79 0 0.0 4.0 0.00 0.01 0.01 89 1011.6
20260509170535 78 202 1.0 4.0 0.00 0.01 0.01 90 1011.6
20260509170051 78 170 0.0 4.0 0.00 0.01 0.01 89 1011.6
20260509165536 78 0 0.0 4.0 0.00 0.01 0.01 90 1011.7
20260509165036 78 247 1.0 4.0 0.00 0.01 0.01 90 1011.7
20260509164546 77 179 0.0 4.0 0.00 0.01 0.01 91 1011.8
20260509164039 77 179 0.0 4.0 0.00 0.01 0.01 91 1011.8
20260509163540 77 269 1.0 4.0 0.00 0.01 0.01 92 1011.8
20260509163054 77 203 1.0 4.0 0.00 0.01 0.01 92 1011.7
20260509162537 77 271 1.0 4.0 0.00 0.01 0.01 93 1011.7
20260509162039 76 288 2.0 6.0 0.00 0.01 0.01 93 1011.7
20260509161549 76 275 1.0 6.0 0.00 0.01 0.01 94 1011.8
20260509161036 76 298 0.0 5.0 0.00 0.01 0.01 95 1011.7
20260509160537 76 0 1.0 4.0 0.00 0.01 0.01 96 1011.7
20260509160050 75 0 0.0 3.0 0.00 0.01 0.01 96 1011.8
20260509155540 75 0 0.0 3.0 0.00 0.01 0.01 96 1011.8
20260509155036 74 142 0.0 3.0 0.00 0.01 0.01 96 1012.0
20260509154553 74 0 0.0 4.0 0.00 0.01 0.01 96 1012.1
20260509154040 74 0 1.0 4.0 0.00 0.01 0.01 96 1012.1
20260509153539 74 282 1.0 4.0 0.00 0.01 0.01 97 1012.1
20260509153049 74 261 1.0 4.0 0.00 0.01 0.01 96 1012.0
20260509152539 74 246 0.0 2.0 0.00 0.01 0.01 97 1011.9
20260509152037 74 0 0.0 3.0 0.00 0.01 0.01 97 1011.8
20260509151547 74 0 0.0 3.0 0.00 0.01 0.01 97 1011.8
20260509151036 74 263 0.0 4.0 0.00 0.01 0.01 97 1011.6
20260509150536 74 0 0.0 5.0 0.00 0.01 0.01 97 1011.6
20260509150049 74 113 0.0 5.0 0.00 0.01 0.01 97 1011.4
20260509145539 74 168 0.0 7.0 0.00 0.01 0.01 97 1011.3
20260509145039 74 188 2.0 7.0 0.00 0.01 0.01 97 1011.1
20260509144549 74 167 3.0 10.0 0.00 0.01 0.01 97 1011.0
20260509144039 73 146 3.0 10.0 0.00 0.01 0.01 97 1010.8
20260509143540 73 173 3.0 8.0 0.00 0.01 0.01 97 1011.0
20260509143047 73 168 2.0 5.0 0.00 0.01 0.01 97 1011.0
20260509142536 73 157 1.0 3.0 0.00 0.01 0.01 97 1011.1
20260509142039 73 0 0.0 2.0 0.00 0.01 0.01 97 1011.2
20260509141547 73 0 0.0 2.0 0.00 0.01 0.01 97 1011.3
20260509141036 73 157 0.0 2.0 0.00 0.01 0.01 97 1011.3
20260509140536 73 0 0.0 2.0 0.00 0.01 0.01 97 1011.2
20260509140056 73 0 0.0 1.0 0.00 0.01 0.01 97 1011.4
20260509135538 73 0 0.0 2.0 0.00 0.04 0.01 97 1011.3
20260509135039 73 0 0.0 2.0 0.00 0.04 0.01 97 1011.3
20260509134557 73 0 0.0 2.0 0.00 0.04 0.01 97 1011.1
20260509134035 73 0 0.0 3.0 0.00 0.04 0.01 97 1011.2
20260509133539 73 157 0.0 5.0 0.00 0.04 0.01 97 1011.1
20260509133053 73 0 1.0 5.0 0.00 0.04 0.01 97 1010.8
20260509132539 73 172 0.0 5.0 0.00 0.04 0.01 97 1010.8
20260509132040 72 166 1.0 10.0 0.00 0.04 0.01 97 1010.6
20260509131551 72 160 3.0 10.0 0.00 0.04 0.01 96 1010.6
20260509131039 72 0 1.0 9.0 0.00 0.04 0.01 96 1010.3
20260509130536 72 177 4.0 9.0 0.00 0.04 0.01 96 1010.0
20260509130052 72 173 5.0 9.0 0.00 0.04 0.01 96 1010.0
20260509125537 72 185 2.0 5.0 0.00 0.21 0.01 96 1010.2
20260509125038 72 173 1.0 7.0 0.00 0.21 0.01 96 1010.2
20260509124546 72 173 2.0 7.0 0.00 0.21 0.01 96 1010.1
20260509124036 72 132 2.0 7.0 0.00 0.21 0.01 96 1010.0
20260509123539 72 147 3.0 6.0 0.00 0.21 0.01 96 1010.0
20260509123045 72 147 1.0 4.0 0.00 0.21 0.01 96 1010.2
20260509122535 72 131 1.0 3.0 0.00 0.21 0.01 96 1010.4
20260509122039 72 215 0.0 1.0 0.00 0.21 0.01 96 1010.6
20260509121547 72 0 0.0 0.0 0.00 0.21 0.01 96 1010.9
20260509121039 71 0 0.0 1.0 0.00 0.21 0.01 96 1010.9
20260509120536 72 0 0.0 1.0 0.00 0.21 0.01 96 1011.0
20260509120054 72 0 0.0 1.0 0.00 0.21 0.01 96 1011.1
20260509115538 71 0 0.0 1.0 0.00 0.84 0.01 96 1011.0
20260509115036 71 0 0.0 3.0 0.00 0.84 0.01 96 1011.1
20260509114547 71 0 0.0 3.0 0.01 0.84 0.01 96 1011.0
20260509114036 71 350 1.0 5.0 0.01 0.84 0.01 96 1011.1
20260509113540 71 350 2.0 5.0 0.01 0.84 0.01 95 1011.1
20260509113048 71 350 2.0 5.0 0.01 0.84 0.01 96 1011.2
20260509112536 71 350 2.0 4.0 0.01 0.84 0.01 96 1011.1
20260509112036 71 288 2.0 4.0 0.01 0.84 0.01 96 1010.9
20260509111549 71 288 2.0 3.0 0.01 0.84 0.01 96 1010.9
20260509111035 71 288 0.0 2.0 0.01 0.84 0.01 96 1010.9
20260509110539 71 0 0.0 3.0 0.01 0.84 0.01 96 1010.7
20260509110049 71 0 0.0 3.0 0.01 0.84 0.01 96 1010.5
20260509105536 71 0 0.0 3.0 0.01 0.84 0.01 95 1010.3
20260509105039 71 221 1.0 3.0 0.00 0.83 0.00 95 1010.3
20260509104550 71 0 0.0 1.0 0.00 0.83 0.00 95 1010.5
20260509104037 71 0 0.0 0.0 0.00 0.83 0.00 95 1010.6
20260509103535 71 0 0.0 0.0 0.00 0.83 0.00 95 1010.6
20260509103047 71 0 0.0 0.0 0.00 0.83 0.00 95 1010.6
20260509102536 71 0 0.0 4.0 0.00 0.83 0.00 95 1010.6
20260509102037 71 0 0.0 4.0 0.00 0.83 0.00 95 1010.7
20260509101556 71 283 1.0 4.0 0.00 0.83 0.00 95 1010.7
20260509101037 72 0 0.0 2.0 0.00 0.83 0.00 95 1010.6
20260509100536 71 0 0.0 2.0 0.00 0.83 0.00 95 1010.6
20260509100047 71 148 0.0 5.0 0.00 0.83 0.00 95 1010.7
20260509095536 71 0 0.0 5.0 0.00 0.83 0.00 95 1010.6
20260509095036 71 148 2.0 5.0 0.00 0.83 0.00 95 1010.4
20260509094552 72 132 2.0 5.0 0.00 0.83 0.00 95 1010.6
20260509094038 72 13 2.0 5.0 0.00 0.83 0.00 94 1010.8
20260509093539 72 13 3.0 5.0 0.00 0.83 0.00 94 1010.9
20260509093056 72 360 2.0 5.0 0.00 0.83 0.00 94 1010.9
20260509092538 72 360 2.0 5.0 0.00 0.83 0.00 94 1010.9
20260509092038 72 150 2.0 5.0 0.00 0.83 0.00 94 1011.0
20260509091551 72 150 2.0 5.0 0.00 0.83 0.00 95 1011.0
20260509091036 72 150 0.0 2.0 0.00 0.83 0.00 94 1010.9
20260509090540 72 0 0.0 0.0 0.00 0.83 0.00 94 1011.0
20260509090047 72 0 0.0 0.0 0.00 0.83 0.00 94 1011.0
20260509085536 72 0 0.0 0.0 0.00 0.83 0.00 94 1010.9
20260509085036 72 0 0.0 0.0 0.00 0.83 0.00 94 1010.9